Weather in Mikhaylovka

Russia / Primorsky Krai     43°55′32″N   132°00′14″E
temp.,
°C
wind,
m/s
gust,
m/s
humid.,
%
clouds,
%
prec.,
mm/h
press.,
hPa
HPBL,
m
26 february, fri
fri2601:00−14wnw338411 0.0 102841
04:00−16nw23855 0.0 102820
07:00−15n238391 0.0 103032
10:00−13nne237796 0.0 1030156
13:00−9n2364100 0.0 1031697
16:00−7nne246479 0.0 1029820
19:00−12ne33843 0.0 103132
22:00−14nne22823 0.0 103320
27 february, sat
sat2701:00−15nne238515 0.0 103524
04:00−17nne22830 0.0 103520
07:00−17ne11830 0.0 103620
10:00−14nw117923 0.0 1035109
13:00−9s237035 0.0 1033321
16:00−4s7136768 0.0 1030649
19:00−7s9188026 0.0 1029528
22:00−6s9208861 0.0 1029624
28 february, sun
sun2801:00−2s81890100 0.0 1028735
04:000s81790100 0.0 1027701
07:000s91791100 0.0 1026453
10:00+1s81491100 0.0 1026413
13:00+2s71296100 0.0 1025342
16:00+3s51090100 0.0 1024274
19:000ssw2391100 0.0 102572
22:00−2nne4897100 1.4 1027392
1 march, mon
mon101:00−6ne61194100 3.0 1028439
04:00−7nne51282100 3.6 1031684
07:00−10nne71472100 0.0 1032519
10:00−10nne6973100 0.0 1035688
13:00−9nne6874100 0.0 1034829
16:00−9ne6874100 0.0 1032698
19:00−11nne4879100 0.0 1032442
22:00−11nne3682100 0.0 1033360
2 march, tue
tue201:00−12nne4882100 0.0 1032507
04:00−13nne61180100 0.0 1030631
07:00−15nne71380100 0.0 1030587
10:00−15n81384100 0.0 1030645
13:00−13n8117364 0.0 1028901
16:00−13n7106431 0.0 1028901
19:00−15nne37760 0.0 1029244
22:00−16ne12800 0.0 103134